Regional Weather Roundup
Issued by NWS Mt. Holly, NJ

Home | Current Version | Previous Version | Text Only | Print | Product List | Glossary On
Versions: 1 2 3 4 5 6 7 8 9 10 11 12 13 14 15 16 17 18 19 20 21 22 23 24 25 26 27 28 29 30 31 32 33 34 35 36 37 38 39 40 41 42 43 44 45 46 47 48 49 50
239
ASUS41 KPHI 131812
RWRPHI

REGIONAL WEATHER ROUNDUP
NATIONAL WEATHER SERVICE MOUNT HOLLY NJ
100 PM EST SAT FEB 13 2016

NOTE:  "FAIR" INDICATES FEW OR NO CLOUDS BELOW 12,000 FEET WITH NO
SIGNIFICANT WEATHER AND/OR OBSTRUCTIONS TO VISIBILITY.

 * = STATION DOES NOT REPORT PRECIPITATION (E.G. RAIN, SNOW, ETC.)
        OR FOG.

NJZ015>026-131900-
SOUTHERN NEW JERSEY

CITY           SKY/WX    TMP DP  RH WIND       PRES   REMARKS
POMONA         PTSUNNY   21   5  50 NW24G32   30.11S WCI   4
6HR MIN TEMP:  21; 6HR MAX TEMP:  26; 6HR PCP: TRACE;

WILDWOOD*        N/A    N/A N/A N/A MISG        N/A
MILLVILLE      PTSUNNY   23  -1  35 NW22G32   30.14F WCI   8
WRIGHTSTOWN    PTSUNNY   23  -5  29 NW16G30   30.06F WCI   9
MOUNT HOLLY    MOSUNNY   19   6  57 W18G31    30.14R WCI   4
TRENTON        PTSUNNY   21  -8  27 NW18G32   30.10S WCI   6
6HR MIN TEMP:  19; 6HR MAX TEMP:  22; 6HR PCP: TRACE;


$$
NJZ001>014-131900-
NORTHERN NEW JERSEY

CITY           SKY/WX    TMP DP  RH WIND       PRES   REMARKS
SUSSEX         CLOUDY    12  -8  40 NW14G26   30.08R WCI  -3
ANDOVER*         N/A     14  -9  35 N13G23    30.07S WCI   0
MORRISTOWN     PTSUNNY   19  -8  30 NW29G43   30.09S WCI   1
NEWARK         PTSUNNY   22 -12  22 NW26G40   30.08R WCI   5
TETERBORO      PTSUNNY   20  -9  27 W23G41    30.07R WCI   3
CALDWELL       PTSUNNY   18 -11  27 NW21G31   30.08S WCI   1
SOMERVILLE     PTSUNNY   19  -5  34 W15G30    30.09R WCI   5
ALLAIRE*       PTSUNNY   21  -6  30 W15G33    30.06S WCI   8
TOMS RIVER*    CLOUDY    21  -6  30 NW24G35   30.08S WCI   4

$$
PAZ043-044-047-054-055-060>062-066>071-131900-
EASTERN PENNSYLVANIA

CITY           SKY/WX    TMP DP  RH WIND       PRES   REMARKS
PHILADELPHIA   PTSUNNY   22  -6  29 W29G37    30.17R WCI   4
6HR MIN TEMP:  19; 6HR MAX TEMP:  23; 6HR PCP: TRACE;

NORTH PHILA    PTSUNNY   21   0  39 W18G33    30.14S WCI   6
BLUE BELL*       N/A     18   1  49 NW10G24   30.12F WCI   6
DOYLESTOWN     CLOUDY    16  -6  37 NW17G32   30.09S WCI   0
QUAKERTOWN*    PTSUNNY   16  -4  41 NW12G24   30.11R WCI   3
PERKASIE*      MOCLDY    16  -2  45 NW17G31   30.10R WCI   0
POTTSTOWN      CLOUDY    16  -3  43 NW20G32   30.15S WCI  -1
LANCASTER      CLOUDY    16   1  51 NW28G37   30.18R WCI  -4
COATESVILLE    LGT SNOW  14   5  67 NW24G32   30.14F WCI  -5
READING        CLOUDY    17  -2  43 W31G41    30.16R WCI  -3
6HR MIN TEMP:  15; 6HR MAX TEMP:  18; 6HR PCP: TRACE;

ALLENTOWN      CLOUDY    17  -4  39 NW15G28   30.11S WCI   2
6HR MIN TEMP:  16; 6HR MAX TEMP:  19;

MOUNT POCONO   CLOUDY     4 -11  50 NW25G35   29.95R WCI -19
6HR MIN TEMP:   4; 6HR MAX TEMP:   9; 6HR PCP: TRACE;

HAZLETON       CLOUDY     9  -8  47 W15       30.05S WCI  -8
LEHIGHTON      MOCLDY    18  -6  35 NW12G17   30.13S WCI   5
WILKES BARRE   CLOUDY     8  -9  45 NW22G29   30.11R WCI -12

$$
DEZALL-MDZ008-012-015-019-020-131900-
DELAWARE AND EASTERN MARYLAND

CITY           SKY/WX    TMP DP  RH WIND       PRES   REMARKS
WILMINGTON     CLOUDY    20   2  45 W26G39    30.18S WCI   2
6HR MIN TEMP:  19; 6HR MAX TEMP:  22;

DOVER          SUNNY     23  -1  34 W26G36    30.16S WCI   6
GEORGETOWN     FLURRIES  23  -4  30 W14G31    30.17F WCI  11
6HR MIN TEMP:  22; 6HR MAX TEMP:  25; 6HR PCP: TRACE;

EASTON         MOSUNNY   25   0  33 NW22G29   30.26S WCI  10
PATUXENT       MOSUNNY   25  -1  32 NW24G36   30.24S WCI   9
OCEAN CITY     MOSUNNY   25   0  33 NW17G31   30.17R WCI  12
WALLOPS ISLAND FAIR      26   1  34 W26G36    30.19S WCI  10
CAMBRIDGE      MOSUNNY   23  -4  30 NW21G26   30.23R WCI   8
SALISBURY      SUNNY     25  -2  31 W21G35    30.19S WCI  11

$$
PAZ001-021-NYZ056-072-MDZ011-DCZ001-131900-
OTHER NEARBY LOCATIONS

CITY           SKY/WX    TMP DP  RH WIND       PRES   REMARKS
HARRISBURG     PTSUNNY   16   0  49 NW28G36   30.21S WCI  -4
STATE COLLEGE  CLOUDY     9  -8  47 NW21G30   30.19S WCI -11
WILLIAMSPORT   CLOUDY    12 -13  31 NW18G37   30.21R WCI  -6
BINGHAMTON     CLOUDY    -3 -16  53 NW21G32   30.06S WCI -26
NEW YORK CITY  PTSUNNY   18 -11  27 NW21G33   30.07R WCI   1
BALTIMORE      PTSUNNY   22  -5  30 NW16G31   30.25R WCI   8
WASHINGTON DC  PTSUNNY   21  -4  33 W18G30    30.29F WCI   6

$$




USA.gov is the U.S. government's official web portal to all federal, state and local government web resources and services.